Tiempo cada hora Abalos

Hoy, 23 Junio, Miércoles

Tiempo Temperatura Precipitaciones Viento Presión Humedad
00:00 +13°C° 0.3 mm 1 mps 717 mmHg 93%
01:00 +13°C° 1.3 mm 2 mps 717 mmHg 93%
02:00 +13°C° 1.3 mm 2 mps 717 mmHg 94%
03:00 +12°C° 1.3 mm 2 mps 717 mmHg 94%
04:00 +12°C° 1.4 mm 2 mps 717 mmHg 94%
05:00 +12°C° 1.4 mm 2 mps 717 mmHg 93%
06:00 +10°C° 1.4 mm 2 mps 718 mmHg 93%
07:00 +12°C° 0.4 mm 2 mps 718 mmHg 88%
08:00 +12°C° 0.4 mm 2 mps 718 mmHg 83%
09:00 +13°C° 0.4 mm 1 mps 718 mmHg 79%
10:00 +14°C° 0.2 mm 2 mps 718 mmHg 75%
11:00 +15°C° 0.2 mm 2 mps 718 mmHg 71%
12:00 +16°C° 0.2 mm 2 mps 718 mmHg 67%
13:00 +16°C° 0.5 mm 3 mps 718 mmHg 69%
14:00 +16°C° 0.5 mm 3 mps 718 mmHg 70%
15:00 +15°C° 0.5 mm 4 mps 718 mmHg 72%
16:00 +14°C° 0.2 mm 3 mps 718 mmHg 74%
17:00 +14°C° 0.2 mm 3 mps 718 mmHg 77%
18:00 +14°C° 0.2 mm 2 mps 719 mmHg 80%
19:00 +14°C° 0.2 mm 2 mps 719 mmHg 82%
20:00 +13°C° 0.2 mm 2 mps 719 mmHg 85%
21:00 +13°C° 0.2 mm 2 mps 720 mmHg 87%
22:00 +13°C° 0.2 mm 2 mps 719 mmHg 88%
23:00 +13°C° 0.2 mm 2 mps 719 mmHg 89%

Mañana, 24 Junio, Jueves

Tiempo Temperatura Precipitaciones Viento Presión Humedad
00:00 +13°C° 0.2 mm 1 mps 719 mmHg 90%
01:00 +13°C° 0 mm 1 mps 719 mmHg 91%
02:00 +13°C° 0 mm 1 mps 719 mmHg 91%
03:00 +13°C° 0 mm 1 mps 719 mmHg 91%
04:00 +13°C° 0 mm 1 mps 719 mmHg 90%
05:00 +13°C° 0 mm 1 mps 720 mmHg 89%
06:00 +13°C° 0 mm 1 mps 720 mmHg 87%
07:00 +14°C° 0 mm 1 mps 720 mmHg 83%
08:00 +15°C° 0 mm 1 mps 720 mmHg 78%
09:00 +16°C° 0 mm 1 mps 720 mmHg 74%
10:00 +18°C° 0 mm 1 mps 720 mmHg 69%
11:00 +18°C° 0 mm 2 mps 720 mmHg 64%
12:00 +20°C° 0 mm 2 mps 720 mmHg 60%
13:00 +20°C° 0 mm 2 mps 720 mmHg 58%
14:00 +21°C° 0 mm 2 mps 720 mmHg 56%
15:00 +22°C° 0 mm 3 mps 719 mmHg 55%
16:00 +21°C° 0 mm 3 mps 719 mmHg 59%
17:00 +20°C° 0 mm 3 mps 719 mmHg 62%
18:00 +20°C° 0 mm 3 mps 719 mmHg 66%
19:00 +18°C° 0 mm 2 mps 719 mmHg 74%
20:00 +16°C° 0 mm 2 mps 720 mmHg 82%
21:00 +14°C° 0 mm 1 mps 720 mmHg 90%
22:00 +13°C° 0 mm 1 mps 720 mmHg 91%
23:00 +13°C° 0 mm 1 mps 720 mmHg 93%

Pasado mañana, 25 Junio, Viernes

Tiempo Temperatura Precipitaciones Viento Presión Humedad
00:00 +12°C° 0 mm 1 mps 720 mmHg 94%
01:00 +12°C° 0 mm 1 mps 719 mmHg 94%
02:00 +11°C° 0 mm 1 mps 719 mmHg 94%
03:00 +11°C° 0 mm 1 mps 719 mmHg 94%
04:00 +12°C° 0 mm 1 mps 719 mmHg 92%
05:00 +12°C° 0 mm 1 mps 719 mmHg 90%
06:00 +12°C° 0 mm 0 mps 719 mmHg 88%
07:00 +15°C° 0 mm 1 mps 719 mmHg 79%
08:00 +18°C° 0 mm 1 mps 719 mmHg 70%
09:00 +21°C° 0 mm 1 mps 719 mmHg 60%
10:00 +22°C° 0 mm 1 mps 719 mmHg 56%
11:00 +24°C° 0 mm 1 mps 719 mmHg 52%
12:00 +26°C° 0 mm 2 mps 719 mmHg 47%
13:00 +26°C° 0 mm 2 mps 718 mmHg 46%
14:00 +27°C° 0 mm 2 mps 718 mmHg 45%
15:00 +28°C° 0 mm 2 mps 718 mmHg 44%
16:00 +27°C° 0 mm 2 mps 717 mmHg 48%
17:00 +27°C° 0 mm 1 mps 717 mmHg 52%
18:00 +26°C° 0 mm 1 mps 717 mmHg 56%
19:00 +24°C° 0 mm 1 mps 717 mmHg 64%
20:00 +22°C° 0 mm 1 mps 717 mmHg 73%
21:00 +19°C° 0 mm 1 mps 717 mmHg 81%
22:00 +18°C° 0 mm 1 mps 717 mmHg 83%
23:00 +18°C° 0 mm 1 mps 717 mmHg 84%

26 Junio, Sábado

Tiempo Temperatura Precipitaciones Viento Presión Humedad
00:00 +16°C° 0 mm 1 mps 717 mmHg 85%
01:00 +16°C° 0 mm 1 mps 717 mmHg 85%
02:00 +16°C° 0 mm 1 mps 717 mmHg 85%
03:00 +16°C° 0 mm 1 mps 716 mmHg 84%
04:00 +18°C° 0 mm 1 mps 716 mmHg 83%
05:00 +18°C° 0 mm 1 mps 717 mmHg 81%
06:00 +19°C° 0 mm 1 mps 717 mmHg 79%
07:00 +21°C° 0 mm 1 mps 717 mmHg 72%
08:00 +23°C° 0 mm 2 mps 717 mmHg 65%
09:00 +26°C° 0 mm 2 mps 717 mmHg 57%
10:00 +27°C° 0 mm 2 mps 717 mmHg 53%
11:00 +29°C° 0 mm 2 mps 716 mmHg 48%
12:00 +30°C° 0 mm 2 mps 716 mmHg 44%
13:00 +31°C° 0 mm 2 mps 716 mmHg 42%
14:00 +32°C° 0 mm 2 mps 716 mmHg 39%
15:00 +32°C° 0 mm 1 mps 715 mmHg 37%
16:00 +31°C° 0 mm 1 mps 715 mmHg 43%
17:00 +31°C° 0 mm 1 mps 715 mmHg 48%
18:00 +30°C° 0 mm 1 mps 715 mmHg 53%
19:00 +27°C° 0.1 mm 1 mps 715 mmHg 62%
20:00 +24°C° 0.1 mm 2 mps 715 mmHg 71%
21:00 +20°C° 0.1 mm 2 mps 715 mmHg 81%
22:00 +19°C° 0.2 mm 2 mps 716 mmHg 85%
23:00 +19°C° 0.2 mm 1 mps 716 mmHg 90%

27 Junio, Domingo

Tiempo Temperatura Precipitaciones Viento Presión Humedad
00:00 +18°C° 0.2 mm 1 mps 716 mmHg 95%
01:00 +16°C° 0 mm 1 mps 716 mmHg 95%
02:00 +16°C° 0 mm 1 mps 716 mmHg 95%
03:00 +16°C° 0 mm 1 mps 716 mmHg 95%
04:00 +16°C° 0 mm 1 mps 716 mmHg 93%
05:00 +16°C° 0 mm 1 mps 717 mmHg 92%
06:00 +16°C° 0 mm 1 mps 717 mmHg 90%
07:00 +18°C° 0 mm 1 mps 717 mmHg 87%
08:00 +18°C° 0 mm 2 mps 717 mmHg 84%
09:00 +19°C° 0 mm 2 mps 717 mmHg 81%
10:00 +20°C° 0 mm 2 mps 718 mmHg 76%
11:00 +21°C° 0 mm 3 mps 718 mmHg 72%
12:00 +22°C° 0 mm 3 mps 718 mmHg 67%
13:00 +22°C° 0 mm 3 mps 718 mmHg 67%
14:00 +22°C° 0 mm 4 mps 718 mmHg 67%
15:00 +22°C° 0 mm 4 mps 718 mmHg 67%
16:00 +21°C° 0 mm 4 mps 718 mmHg 70%
17:00 +20°C° 0 mm 3 mps 718 mmHg 72%
18:00 +19°C° 0 mm 3 mps 718 mmHg 74%
19:00 +18°C° 0 mm 3 mps 718 mmHg 79%
20:00 +17°C° 0 mm 2 mps 718 mmHg 83%
21:00 +16°C° 0 mm 2 mps 719 mmHg 87%
22:00 +15°C° 0 mm 2 mps 719 mmHg 89%
23:00 +15°C° 0 mm 1 mps 719 mmHg 91%

28 Junio, Lunes

Tiempo Temperatura Precipitaciones Viento Presión Humedad
00:00 +14°C° 0 mm 1 mps 719 mmHg 92%
01:00 +14°C° 0 mm 1 mps 719 mmHg 93%
02:00 +13°C° 0 mm 1 mps 719 mmHg 94%
03:00 +13°C° 0 mm 1 mps 719 mmHg 94%
04:00 +14°C° 0 mm 1 mps 719 mmHg 92%
05:00 +14°C° 0 mm 1 mps 719 mmHg 90%
06:00 +14°C° 0 mm 1 mps 719 mmHg 88%
07:00 +16°C° 0 mm 1 mps 719 mmHg 84%
08:00 +17°C° 0 mm 2 mps 719 mmHg 80%
09:00 +18°C° 0 mm 2 mps 719 mmHg 75%
10:00 +19°C° 0 mm 2 mps 719 mmHg 72%
11:00 +20°C° 0 mm 3 mps 719 mmHg 68%
12:00 +21°C° 0 mm 3 mps 719 mmHg 65%
13:00 +22°C° 0 mm 3 mps 719 mmHg 63%
14:00 +22°C° 0 mm 3 mps 719 mmHg 62%
15:00 +24°C° 0 mm 3 mps 719 mmHg 61%
16:00 +22°C° 0 mm 3 mps 719 mmHg 63%
17:00 +21°C° 0 mm 3 mps 719 mmHg 65%
18:00 +20°C° 0 mm 3 mps 719 mmHg 67%
19:00 +18°C° 0 mm 3 mps 719 mmHg 75%
20:00 +16°C° 0 mm 2 mps 719 mmHg 83%
21:00 +14°C° 0 mm 1 mps 719 mmHg 90%
22:00 +13°C° 0 mm 1 mps 719 mmHg 92%
23:00 +13°C° 0 mm 1 mps 719 mmHg 93%
Mostrar más

Necesitamos Su Consentimiento

Meteoprog y nuestros Proveedores de Servicios pueden almacenar y acceder a sus datos personales como cookies, identificadores de dispositivo u otras tecnologías similares de su dispositivo y procesar dichos datos para personalizar contenido y anuncios, además de ofrecer funciones de redes sociales y analizar el tráfico.

  • Almacenar y/o acceder a información en su dispositivo

    Se puede almacenar o acceder a cookies, identificadores de dispositivo u otra información de su dispositivo para los fines anteriormente indicados.

  • Anuncios y contenido personalizados, medición de anuncios y contenido, percepciones del público, y desarrollo de productos

    Los anuncios y el contenido pueden personalizarse en base a su perfil. Se pueden añadir más datos para personalizar mejor los anuncios y contenidos. Se puede medir el rendimiento de los anuncios y contenidos. Se puede obtener la percepción sobre el público que ha visto los anuncios y contenidos. Dichos datos pueden usarse para desarrollar o mejorar la experiencia del usuario, sistemas y software.

Al hacer clic en ‘Estoy De Acuerdo’ usted permitirá el uso de las cookies, identificadores de dispositivo, balizas web u otras tecnologías similares indicadas. Su configuración puede cambiarse desde el navegador de su dispositivo.

Para ciertos fines, los intereses legítimos pueden ser considerados por encima del consentimiento. Puede leer más sobre ello en nuestra Política de Privacidad y Cookies.